Location: Newark
(37.3186°N, 13.6631°E)
Time: 02:18:47
(UTC+00:00)

ISS - Pass Details

Date: 21 November 2019
Orbit: 411 x 421 km, 51.6° (Epoch: 15 December)

Event Time Altitude Azimuth Distance (km) Brightness Sun altitude
Rises 18:10:05 0° 250° (WSW) 2,348 1.2 -27.3°
Reaches altitude 10° 18:12:17 10° 260° (W) 1,490 0.0 -27.8°
Enters shadow 18:13:41 20° 275° (W) 1,015 -1.1 -28.0°
